Home > Weather > Sunderland > Past weeks

Flag for United Kingdom Past Weather in Sunderland, England, United Kingdom — Yesterday and Last 2 Weeks

Now
55 °F

Passing clouds.


Feels Like: 55 °F
Forecast: 56 / 63 °F
Wind: 2 mph from North

Location: Newcastle

Current Time: Aug 24, 2016 at 10:44:28 PM

Latest Report: Aug 24, 2016 at 10:20 PM


Visibility: 5 mi

Pressure: 30.15 "Hg

Humidity: 100%

Dew Point: 55 °F

Location of SunderlandLocation

Past Weather in Sunderland — Graph

°F

Sunderland Temperature Yesterday

Maximum temperature yesterday: 75 °F (at 3:50 PM)
Minimum temperature yesterday: 48 °F (at 1:50 AM)
Average temperature yesterday: 61 °F

High & Low Weather Summary for the Past Weeks

 TemperatureHumidityPressure
High75 °F (Aug 23, 3:50 PM)100% (Aug 9, 9:20 PM)30.33 "Hg (Aug 9, 9:20 PM)
Low43 °F (Aug 10, 5:20 AM)50% (Aug 24, 12:50 PM)29.30 "Hg (Aug 20, 5:20 PM)
Average59 °F86%30.00 "Hg
* Reported Aug 9 9:20 PM — Aug 24 9:20 PM, Sunderland, Weather by CustomWeather, © 2016

Note: Actual official high and low records may vary slightly from our data, if they occured in-between our weather recording intervals... More about our weather records

Advertising

Sunderland Weather History for the Previous 24 Hours

Scroll right to see more
 ConditionsComfort  
Time TempWeatherWind HumidityBarometerVisibility
9:20 PM
Wed, Aug 24
55 °FPassing clouds.6 mph100%30.15 "Hg5 mi
8:50 PM57 °FPartly sunny.3 mph100%30.15 "Hg6 mi
8:20 PM57 °FPartly sunny.2 mph100%30.15 "HgN/A
7:50 PM57 °FPartly sunny.5 mph100%30.15 "HgN/A
7:20 PM59 °FScattered clouds.6 mph94%30.12 "HgN/A
6:50 PM61 °FPassing clouds.8 mph88%30.12 "HgN/A
6:20 PM61 °FPassing clouds.6 mph88%30.15 "HgN/A
5:50 PM63 °FPassing clouds.7 mph83%30.15 "HgN/A
5:20 PM63 °FPassing clouds.7 mph77%30.15 "HgN/A
4:50 PM63 °FPassing clouds.8 mph77%30.12 "HgN/A
4:20 PM64 °FPassing clouds.12 mph73%30.12 "HgN/A
3:50 PM64 °FPassing clouds.10 mph78%30.12 "HgN/A
3:20 PM68 °FPassing clouds.10 mph69%30.12 "HgN/A
2:50 PM68 °FPassing clouds.8 mph69%30.12 "HgN/A
2:20 PM68 °FPassing clouds.9 mph69%30.12 "HgN/A
1:20 PM72 °FPassing clouds.5 mph61%30.09 "HgN/A
12:50 PM72 °FPassing clouds.3 mph50%30.09 "HgN/A
12:20 PM72 °FPassing clouds.3 mph53%30.09 "HgN/A
11:50 AM70 °FPassing clouds.5 mph57%30.12 "HgN/A
11:20 AM70 °FPassing clouds.3 mph60%30.12 "HgN/A
10:20 AM68 °FPassing clouds.6 mph64%30.12 "HgN/A
9:50 AM66 °FScattered clouds.7 mph73%30.09 "HgN/A
9:20 AM66 °FPassing clouds.7 mph73%30.09 "HgN/A
8:50 AM63 °FPassing clouds.6 mph88%30.09 "HgN/A
7:50 AM59 °FPassing clouds.5 mph94%30.09 "HgN/A
7:20 AM59 °FPassing clouds.6 mph94%30.09 "HgN/A
6:20 AM59 °FPassing clouds.8 mph94%30.09 "HgN/A
5:50 AM59 °FPassing clouds.6 mph94%30.07 "HgN/A
5:20 AM59 °FPassing clouds.5 mph94%30.07 "HgN/A
4:50 AM59 °FPassing clouds.7 mph94%30.07 "HgN/A
4:20 AM59 °FLight rain. Passing clouds.3 mph94%30.07 "HgN/A
3:20 AM57 °FPassing clouds.2 mph100%30.04 "HgN/A
2:50 AM59 °FPassing clouds.5 mph100%30.07 "HgN/A
2:20 AM59 °FPassing clouds.6 mph100%30.07 "HgN/A
1:50 AM59 °FPassing clouds.9 mph100%30.07 "HgN/A
1:20 AM59 °FPassing clouds.6 mph100%30.07 "HgN/A
12:50 AM61 °FPassing clouds.5 mph94%30.04 "HgN/A
12:20 AM59 °FPassing clouds.3 mph100%30.04 "HgN/A
11:50 PM
Tue, Aug 23
59 °FPassing clouds.6 mph100%30.04 "HgN/A
11:20 PM59 °FPassing clouds.3 mph100%30.04 "HgN/A
10:50 PM61 °FPassing clouds.2 mph100%30.04 "HgN/A
10:20 PM59 °FPassing clouds.No wind100%30.07 "HgN/A
Weather by CustomWeather, © 2016

See weather overviewHow to use our weather pages